This demonstration page uses our WeatherBlox Daily Observations layout. Learn more.

Left ArrowRight Arrow

38.25424, -85.75941

Hourly Observations for January 24, 2022

Temp ( °F °C ) Dew Point ( °F °C ) Humidity (%) Winds ( mph kmh ) Pressure ( in mb ) Visibility ( mi km ) Precip ( " mm )
12:56 am 00:56 Mostly Cloudy 27 -2.8 19 -7.2 72 72 Calm 29.99 1016 10 16 0.00 0.00
1:56 am 01:56 Cloudy 26 -3.3 20 -6.7 78 78 Calm 29.97 1015 10 16 0.00 0.00
2:56 am 02:56 Mostly Cloudy 26 -3.3 18 -7.8 71 71 Calm 29.96 1015 10 16 0.00 0.00
3:56 am 03:56 Cloudy 24 -4.4 19 -7.2 81 81 SE 3 6 29.95 1014 10 16 0.00 0.00
4:56 am 04:56 Cloudy 24 -4.4 20 -6.7 84 84 SE 7 11 29.93 1013 10 16 0.00 0.00
5:56 am 05:56 Cloudy 25 -3.9 20 -6.7 81 81 SE 7 11 29.89 1012 10 16 0.00 0.00
6:56 am 06:56 Cloudy 26 -3.3 20 -6.7 78 78 SE 5 7 29.88 1012 10 16 0.00 0.00
7:56 am 07:56 Cloudy 27 -2.8 20 -6.7 75 75 SSE 10 17 29.84 1010 10 16 0.00 0.00
8:56 am 08:56 Cloudy 29 -1.7 20 -6.7 69 69 SSE 9 15 29.83 1010 10 16 0.00 0.00
9:56 am 09:56 Cloudy 31 -0.6 20 -6.7 64 64 S 9 15 29.82 1010 10 16 0.00 0.00
10:56 am 10:56 Cloudy 36 2.2 22 -5.6 57 57 S 7 11 29.81 1010 10 16 0.00 0.00
11:56 am 11:56 Mostly Cloudy 40 4.4 24 -4.4 53 53 SSW 13 20 29.78 1008 10 16 0.00 0.00
12:56 pm 12:56 Cloudy 48 8.9 28 -2.2 46 46 SW 13 20 29.74 1007 10 16 0.00 0.00
1:56 pm 13:56 Cloudy 50 10 29 -1.7 44 44 WSW 18 30 29.71 1006 10 16 0.00 0.00
2:56 pm 14:56 Cloudy 50 10 30 -1.1 46 46 WSW 17 28 29.71 1006 10 16 0.00 0.00
3:56 pm 15:56 Cloudy 50 10 30 -1.1 46 46 W 21 33 29.73 1007 10 16 0.00 0.00
4:56 pm 16:56 Cloudy 48 8.9 31 -0.6 52 52 WSW 9 15 29.75 1007 10 16 0.00 0.00
5:56 pm 17:56 Cloudy 47 8.3 31 -0.6 54 54 W 8 13 29.76 1008 10 16 0.00 0.00
6:56 pm 18:56 Cloudy 47 8.3 33 0.6 59 59 W 9 15 29.79 1009 10 16 0.00 0.00
7:56 pm 19:56 Cloudy 45 7.2 35 1.7 68 68 WSW 9 15 29.82 1010 10 16 0.00 0.00
8:56 pm 20:56 Cloudy 45 7.2 36 2.2 71 71 W 12 19 29.84 1011 10 16 0.00 0.00
9:56 pm 21:56 Cloudy 44 6.7 35 1.7 71 71 WNW 13 20 29.85 1011 10 16 0.00 0.00
10:56 pm 22:56 Cloudy 43 6.1 34 1.1 71 71 NW 14 22 29.88 1012 10 16 0.00 0.00
11:23 pm 23:23 Cloudy 42 5.6 34 1.1 73 73 WNW 15 24 29.90 1012 10 16 0.00 0.00
11:56 pm 23:56 Cloudy 39 3.9 30 -1.1 70 70 NW 17 28 29.91 1013 10 16 0.00 0.00

Powered by AerisWeather